St. Francis, KS

7:12 AM CST on January 22, 2018 (GMT -0600)
Cheyenne County Municipal

Weather History for KSYF - July, 2013

Change the Weather History Date:

Saturday, July 13, 2013

  Actual Average Record
Temperature  
Mean Temperature 85 °F -  
Max Temperature 104 °F 91 °F 104 °F (2013)
Min Temperature 66 °F 62 °F 61 °F (2016)
Cooling Degree Days 20    
Growing Degree Days 35 (Base 50)    
Moisture  
Dew Point 58 °F    
Average Humidity 45    
Maximum Humidity 82    
Minimum Humidity 15    
Precipitation  
Precipitation 0.00 in - - ()
Sea Level Pressure  
Sea Level Pressure 29.96 in    
Wind  
Wind Speed 6 mph (WNW)    
Max Wind Speed 18 mph    
Max Gust Speed 37 mph    
Visibility 10 miles    
Events Rain    
Averages and records for this station are not official NWS values.
T = Trace of Precipitation, MM = Missing Value Source: NWS Daily Summary

Daily Weather History Graph

Daily Weather History Graph

Search for Another Location

Airport or City:

Trip Planner

Search our weather history database for the weather conditions in past years. The results will help you decide how hot, cold, wet, or windy it might be!

Date:

Astronomy

Jul. 13, 2013 Rise Set
Actual Time 6:30 AM CDT 9:15 PM CDT
Civil Twilight 5:58 AM CDT 9:46 PM CDT
Nautical Twilight 5:18 AM CDT 10:26 PM CDT
Astronomical Twilight 4:33 AM CDT 11:11 PM CDT
Moon 11:47 AM CDT (7/13) 11:57 PM CDT (7/13)
Length of Visible Light 15h 48m
Length of Day
14h 44m
Waxing Crescent, 26% of the Moon is Illuminated
Jul 13
Waxing Crescent
Jul 15
First Quarter
Jul 22
Full
Jul 29
Last Quarter
Aug 6
New

Hourly Weather History & Observations

Time (CDT) Temp. Heat Index Dew Point Humidity Pressure Visibility Wind Dir Wind Speed Gust Speed Precip Events Conditions
12:15 AM 84.9 °F - 51.1 °F 31% 29.95 in 10.0 mi SW 9.2 mph - N/A   Clear
12:35 AM 82.0 °F - 52.2 °F 35% 29.96 in 10.0 mi Calm Calm - N/A   Clear
12:55 AM 82.6 °F - 52.7 °F 35% 29.96 in 10.0 mi SW 6.9 mph - N/A   Clear
1:15 AM 79.5 °F - 57.4 °F 47% 29.96 in 10.0 mi SW 8.1 mph - N/A   Clear
1:35 AM 77.2 °F - 59.4 °F 54% 29.97 in 10.0 mi SW 6.9 mph - N/A   Clear
1:55 AM 75.7 °F - 59.9 °F 58% 29.97 in 10.0 mi WSW 6.9 mph - N/A   Clear
2:15 AM 74.7 °F - 60.1 °F 60% 29.98 in 10.0 mi West 4.6 mph - N/A   Clear
2:35 AM 75.4 °F - 61.2 °F 61% 29.97 in 10.0 mi NW 8.1 mph - N/A   Clear
2:55 AM 75.2 °F - 61.7 °F 63% 29.98 in 10.0 mi WNW 3.5 mph - N/A   Clear
3:15 AM 74.5 °F - 61.7 °F 64% 29.98 in 10.0 mi NNW 4.6 mph - N/A   Clear
3:35 AM 74.3 °F - 61.7 °F 65% 29.98 in 10.0 mi NNE 3.5 mph - N/A   Clear
3:55 AM 72.7 °F - 61.9 °F 69% 29.98 in 10.0 mi North 4.6 mph - N/A   Clear
4:15 AM 72.3 °F - 61.9 °F 70% 29.97 in 10.0 mi NNE 3.5 mph - N/A   Clear
4:35 AM 72.3 °F - 62.6 °F 71% 29.98 in 10.0 mi Calm Calm - N/A   Clear
4:55 AM 71.1 °F - 61.7 °F 72% 29.97 in 10.0 mi West 3.5 mph - N/A   Clear
5:15 AM 69.4 °F - 61.2 °F 75% 29.96 in 10.0 mi West 3.5 mph - N/A   Clear
5:35 AM 69.6 °F - 61.5 °F 75% 29.97 in 10.0 mi Calm Calm - N/A   Clear
5:55 AM 68.4 °F - 60.6 °F 76% 29.97 in 10.0 mi WSW 5.8 mph - N/A   Clear
6:15 AM 66.7 °F - 60.8 °F 81% 29.97 in 10.0 mi SW 5.8 mph - N/A   Clear
6:35 AM 66.2 °F - 60.6 °F 82% 29.97 in 10.0 mi SW 5.8 mph - N/A   Clear
6:55 AM 66.4 °F - 60.8 °F 82% 29.97 in 10.0 mi SW 5.8 mph - N/A   Clear
7:15 AM 66.9 °F - 61.0 °F 81% 29.97 in 10.0 mi WSW 4.6 mph - N/A   Clear
7:35 AM 68.9 °F - 61.5 °F 77% 29.97 in 10.0 mi SSW 3.5 mph - N/A   Clear
7:55 AM 71.4 °F - 61.7 °F 71% 29.98 in 10.0 mi West 8.1 mph - N/A   Clear
8:15 AM 72.1 °F - 61.7 °F 70% 29.99 in 10.0 mi West 4.6 mph - N/A   Clear
8:35 AM 74.7 °F - 62.6 °F 66% 29.99 in 10.0 mi West 6.9 mph - N/A   Clear
8:55 AM 77.0 °F - 62.6 °F 61% 29.99 in 10.0 mi WSW 6.9 mph - N/A   Clear
9:15 AM 79.0 °F - 62.1 °F 56% 29.99 in 10.0 mi West 8.1 mph - N/A   Clear
9:35 AM 81.3 °F 82.2 °F 61.7 °F 51% 29.99 in 10.0 mi WNW 9.2 mph - N/A   Clear
9:55 AM 83.5 °F 83.7 °F 61.0 °F 46% 29.99 in 10.0 mi West 8.1 mph - N/A   Clear
10:15 AM 84.2 °F 84.2 °F 60.3 °F 44% 29.99 in 10.0 mi West 9.2 mph - N/A   Clear
10:35 AM 86.0 °F 85.4 °F 59.2 °F 40% 29.99 in 10.0 mi West 6.9 mph - N/A   Clear
10:55 AM 87.6 °F 86.7 °F 58.5 °F 37% 29.99 in 10.0 mi West 5.8 mph - N/A   Clear
11:15 AM 89.2 °F 87.9 °F 57.2 °F 34% 29.99 in 10.0 mi NW 3.5 mph - N/A   Clear
11:35 AM 91.4 °F 89.6 °F 56.3 °F 30% 29.99 in 10.0 mi NW 6.9 mph - N/A   Clear
11:55 AM 91.4 °F 89.6 °F 56.1 °F 30% 29.99 in 10.0 mi North 3.5 mph - N/A   Clear
12:15 PM 93.7 °F 91.7 °F 55.4 °F 27% 29.98 in 10.0 mi NW 9.2 mph - N/A   Clear
12:35 PM 94.1 °F 91.9 °F 54.3 °F 26% 29.98 in 10.0 mi North 5.8 mph - N/A   Clear
12:55 PM 95.4 °F 93.2 °F 54.3 °F 25% 29.97 in 10.0 mi Calm Calm - N/A   Clear
1:15 PM 97.2 °F 94.9 °F 53.8 °F 23% 29.97 in 10.0 mi ENE 5.8 mph - N/A   Clear
1:35 PM 98.1 °F 95.7 °F 53.2 °F 22% 29.97 in 10.0 mi NNE 4.6 mph - N/A   Clear
1:55 PM 98.1 °F - 52.3 °F 21% 29.96 in 10.0 mi WSW 4.6 mph - N/A   Clear
2:15 PM 99.5 °F - 52.2 °F 20% 29.95 in 10.0 mi North 5.8 mph - N/A   Clear
2:35 PM 101.1 °F - 51.6 °F 19% 29.94 in 10.0 mi WSW 3.5 mph 9.2 mph N/A   Clear
2:55 PM 101.1 °F - 51.4 °F 19% 29.94 in 10.0 mi North 10.4 mph - N/A   Clear
3:15 PM 102.0 °F - 50.5 °F 18% 29.93 in 10.0 mi WNW 5.8 mph - N/A   Clear
3:35 PM 102.6 °F - 50.2 °F 17% 29.92 in 10.0 mi North 6.9 mph - N/A   Clear
3:55 PM 101.3 °F - 50.0 °F 18% 29.92 in 10.0 mi NNW 5.8 mph - N/A   Clear
4:15 PM 104.4 °F - 49.1 °F 16% 29.91 in 10.0 mi NE 8.1 mph - N/A   Clear
4:35 PM 101.5 °F - 49.1 °F 17% 29.91 in 10.0 mi SSW 3.5 mph - N/A   Clear
4:55 PM 104.0 °F - 48.2 °F 15% 29.90 in 10.0 mi NNW 6.9 mph - N/A   Clear
5:15 PM 103.8 °F - 47.8 °F 15% 29.90 in 10.0 mi North 6.9 mph - N/A   Mostly Cloudy
5:35 PM 104.7 °F - 47.5 °F 15% 29.89 in 10.0 mi North 6.9 mph - N/A   Mostly Cloudy
5:55 PM 104.4 °F - 49.6 °F 16% 29.89 in 10.0 mi NW 12.7 mph - N/A   Overcast
6:15 PM 103.3 °F - 47.5 °F 15% 29.89 in 10.0 mi SSE 8.1 mph - N/A   Overcast
6:35 PM 103.1 °F - 47.3 °F 15% 29.88 in 10.0 mi ENE 5.8 mph - N/A   Overcast
6:55 PM 99.9 °F - 52.7 °F 21% 29.88 in 10.0 mi NNE 6.9 mph - N/A   Mostly Cloudy
7:15 PM 84.9 °F 86.8 °F 65.3 °F 52% 29.91 in 5.0 mi SW 18.4 mph 36.8 mph N/A Rain Heavy Rain
7:35 PM 81.7 °F 83.3 °F 64.6 °F 56% 29.91 in 10.0 mi WNW 6.9 mph 13.8 mph N/A Rain Rain
7:55 PM 84.4 °F 86.6 °F 65.8 °F 54% 29.91 in 10.0 mi West 6.9 mph - N/A Rain Light Rain
8:15 PM 85.8 °F 88.5 °F 66.7 °F 53% 29.92 in 10.0 mi NW 12.7 mph - N/A   Scattered Clouds
8:35 PM 87.3 °F 88.6 °F 64.0 °F 46% 29.92 in 10.0 mi NNW 11.5 mph - N/A   Clear
8:55 PM 88.5 °F 88.9 °F 61.9 °F 41% 29.92 in 10.0 mi NW 10.4 mph - N/A   Clear
9:15 PM 88.0 °F 87.9 °F 61.0 °F 40% 29.92 in 10.0 mi NNW 8.1 mph - N/A   Clear
9:35 PM 87.4 °F 87.4 °F 61.3 °F 41% 29.92 in 10.0 mi North 4.6 mph - N/A   Clear
9:55 PM 86.5 °F 86.8 °F 61.7 °F 43% 29.93 in 10.0 mi NNW 4.6 mph - N/A   Clear
10:15 PM 86.2 °F 86.6 °F 61.9 °F 44% 29.95 in 10.0 mi NNW 5.8 mph - N/A   Clear
10:35 PM 84.9 °F 85.6 °F 62.8 °F 47% 29.98 in 10.0 mi WSW 3.5 mph - N/A   Scattered Clouds
10:55 PM 85.1 °F 84.3 °F 57.7 °F 39% 29.99 in 10.0 mi SW 3.5 mph - N/A   Scattered Clouds
11:15 PM 83.5 °F 83.4 °F 59.4 °F 44% 30.00 in 10.0 mi WSW 6.9 mph - N/A   Overcast
11:35 PM 77.0 °F - 62.8 °F 61% 29.99 in 5.0 mi NW 12.7 mph - N/A Rain Rain
11:55 PM 76.5 °F - 62.8 °F 62% 30.03 in 10.0 mi NNW 11.5 mph - N/A   Mostly Cloudy